Location: Alafon
(8.4500°N, 4.2333°E)
Time: 01:38:44
(UTC+00:00)

Okean 1-7 Rocket - Pass Details

Date: 05 July 2020
Orbit: 615 x 650 km, 82.5° (Epoch: 06 August)

Event Time Altitude Azimuth Distance (km) Brightness Sun altitude
Rises 19:17:14 0° 192° (SSW) 2,956 6.9 -16.9°
Reaches altitude 10° 19:19:30 10° 196° (SSW) 2,047 6.1 -17.4°
Maximum altitude 19:23:58 56° 274° (W) 768 4.3 -18.4°
Drops below altitude 10° 19:28:26 10° 353° (N) 2,045 6.7 -19.3°
Sets 19:30:43 0° 357° (N) 2,952 7.5 -19.8°
